User: anonymous   Login
Location: Wildcat Hills Observatory
(41.6350°N, 103.6812°W)
Time: 20:04:17
(UTC-06:00)
Language:

Cosmos 1634 Rocket - Orbit

View from above orbital plane
View from above orbital plane
View from above satellite
View from above satellite

Ground track
Ground track

The orbit data is extracted from the following two-line orbital elements,

1 15598U 85022B   16148.22743829  .00000024  00000-0  87044-5 0  9996
2 15598  82.9391  33.9866 0023463 107.4814   5.8228 13.76544097567368
Epoch (UTC): 27 May 2016 05:27:30
Eccentricity: 0.0023463
inclination: 82.9391°
perigee height: 959 km
apogee height: 993 km
right ascension of ascending node: 33.9866°
argument of perigee: 107.4814°
revolutions per day: 13.76544097
mean anomaly at epoch: 5.8228°
orbit number at epoch: 56736

The dashed part of the orbit path shows where the satellite is in the earth's shadow,  

DLR